This is the latest recevied weather packets stored in our database for station/object KN6ZYR. If no packets are shown the sender has not sent any weather packets the latest 10 day(s).
| Time | Temp. | Humidity | Pressure | Rain* | Wind** | Luminosity | Snow |
|---|---|---|---|---|---|---|---|
| 1777971410 | 7.22° C | 92% | 1016.3 hPa | 0 mm | - | 0 W/m² | - |
| 1777971109 | 7.22° C | 92% | 1016.3 hPa | 0 mm | - | 0 W/m² | - |
| 1777970806 | 7.22° C | 92% | 1016.3 hPa | 0 mm | - | 0 W/m² | - |
| 1777970504 | 7.22° C | 91% | 1016.3 hPa | 0 mm | - | 0 W/m² | - |
| 1777970202 | 7.22° C | 91% | 1016.5 hPa | 1.27 mm | - | 0 W/m² | - |
| 1777969897 | 7.22° C | 90% | 1016.5 hPa | 1.27 mm | - | 0 W/m² | - |
| 1777969594 | 7.22° C | 89% | 1016.5 hPa | 0 mm | - | 0 W/m² | - |
| 1777969291 | 7.22° C | 88% | 1016.7 hPa | 1.78 mm | - | 0 W/m² | - |
| 1777968987 | 7.22° C | 87% | 1016.6 hPa | 1.78 mm | - | 0 W/m² | - |
| 1777968685 | 7.22° C | 88% | 1016.7 hPa | 0 mm | - | 0 W/m² | - |
| 1777968381 | 7.22° C | 88% | 1016.8 hPa | 0 mm | - | 0 W/m² | - |
| 1777968077 | 7.22° C | 88% | 1017 hPa | 1.27 mm | - | 0 W/m² | - |
| 1777967773 | 7.22° C | 87% | 1017 hPa | 1.27 mm | - | 0 W/m² | - |
| 1777967470 | 7.22° C | 87% | 1017 hPa | 0 mm | - | 0 W/m² | - |
| 1777967167 | 7.22° C | 87% | 1017 hPa | 1.78 mm | - | 0 W/m² | - |
| 1777966864 | 7.22° C | 86% | 1017.2 hPa | 1.78 mm | - | 0 W/m² | - |
| 1777966562 | 7.22° C | 86% | 1017.1 hPa | 1.27 mm | - | 0 W/m² | - |
| 1777966260 | 7.22° C | 86% | 1017.1 hPa | 3.05 mm | - | 0 W/m² | - |
| 1777965955 | 7.22° C | 85% | 1017.2 hPa | 1.78 mm | - | 0 W/m² | - |
| 1777965652 | 7.22° C | 85% | 1017.2 hPa | 1.27 mm | - | 0 W/m² | - |
| 1777965347 | 7.22° C | 86% | 1017 hPa | 1.27 mm | - | 0 W/m² | - |
| 1777965048 | 7.22° C | 86% | 1017.1 hPa | 1.78 mm | - | 0 W/m² | - |
| 1777964743 | 6.67° C | 88% | 1017.2 hPa | 1.78 mm | - | 0 W/m² | - |
| 1777964439 | 6.67° C | 88% | 1017.3 hPa | 0 mm | - | 0 W/m² | - |
| 1777964135 | 6.67° C | 88% | 1017.3 hPa | 1.27 mm | - | 0 W/m² | - |
* Rain latest hour (hover to see other rain measurements)
** Current wind speed in m/s (hover to see current wind gust speed)